Regional Weather Roundup
Issued by NWS

Home | Current Version | Previous Version | Text Only | Print | Product List | Glossary On
Versions: 1 2 3 4 5 6 7 8 9 10 11 12 13 14 15 16 17 18 19 20 21 22 23 24 25 26 27 28 29 30 31 32 33 34 35 36 37 38 39 40 41 42 43 44 45 46 47 48 49 50
000
ASUS46 KPQR 212010
RWROR

OREGON REGIONAL WEATHER ROUNDUP
NATIONAL WEATHER SERVICE PORTLAND OR
100 PM PDT TUE OCT 21 2014

NOTE: "FAIR" INDICATES FEW OR NO CLOUDS BELOW 12,000 FEET WITH
NO SIGNIFICANT WEATHER AND/OR OBSTRUCTIONS TO VISIBILITY.

ORZ001>013-212100-
NORTHWEST OREGON


CITY           SKY/WX    TMP DP  RH WIND       PRES   REMARKS
ASTORIA        PTSUNNY   61  54  77 S16G26    29.91F
NEWPORT        SUNNY     61  54  77 S22G33    30.01S
PORTLAND       CLOUDY    61  51  70 S12       29.99F
VANCOUVER WA   CLOUDY    60  50  69 SE8       29.99F
SCAPPOOSE      CLOUDY    59  51  75 S7        29.98F
HILLSBORO      CLOUDY    59  51  75 S13G21    29.98F
AURORA         CLOUDY    59  50  72 S13G23    30.01S
MCMINNVILLE    CLOUDY    59  51  75 S14       30.00S
SALEM          PTSUNNY   61  49  64 S15       30.00F
CORVALLIS      CLOUDY    61  52  72 S16       30.03S
EUGENE         PTSUNNY   61  49  64 S16       30.03F
$$

ORZ021-028-212100-
SOUTHWEST OREGON


CITY           SKY/WX    TMP DP  RH WIND       PRES   REMARKS
NORTH BEND     CLOUDY    63  57  82 S5        30.03F
BROOKINGS      CLOUDY    60  51  72 S12       30.10S
ROSEBURG       MOSUNNY   64  46  52 SE10      30.06F
SEXTON SUMMIT  FOG       44  44 100 S10G20    30.07F VSB 3/4
MEDFORD        MOSUNNY   59  47  64 N5        30.09F
$$

ORZ009-041-212100-
COLUMBIA GORGE


CITY           SKY/WX    TMP DP  RH WIND       PRES   REMARKS
TROUTDALE      CLOUDY    62  51  67 S5        29.99F
THE DALLES     SUNNY     64  49  57 N8        29.98F
$$

ORZ029>031-042>050-061>064-212100-
EASTERN OREGON


CITY           SKY/WX    TMP DP  RH WIND       PRES   REMARKS
REDMOND        PTSUNNY   56  36  47 SW6       30.03F
BEND           CLEAR     54  36  50 S14       30.05F
KLAMATH FALLS  PTSUNNY   50  37  61 S5        30.11F
LAKEVIEW       CLOUDY    46  34  61 S9        30.14F
HERMISTON      SUNNY     65  43  44 W16G24    29.98R
PENDLETON      PTSUNNY   61  42  49 W22G29    29.99S
JOHN DAY       MOCLDY    53  38  56 S9G16     30.05F
MEACHAM        CLOUDY    50  38  63 VRB3      30.02R
LA GRANDE      CLOUDY    57  34  41 W7        30.00S
BAKER CITY     CLOUDY    58  35  42 VRB6      30.02R
BURNS          PTSUNNY   51  35  54 SW17      30.08F
ROME             N/A     54  32  43 S7G18     30.07F
ONTARIO        PTSUNNY   62  37  39 W6        30.02F
$$



USA.gov is the U.S. government's official web portal to all federal, state and local government web resources and services.